Time,TemperatureF,DewpointF,PressureIn,WindDirection,WindDirectionDegrees,WindSpeedMPH,WindSpeedGustMPH,Humidity,HourlyPrecipIn,Conditions,Clouds,dailyrainin,SoftwareType,DateUTC
2013-02-25 00:01:00,31.0,23.0,30.07,West,281,0.0,-999.0,72,-99.99,,,-99.99,,2013-02-25 05:01:00,
2013-02-25 00:11:00,31.0,23.0,30.07,West,281,0.0,-999.0,72,-99.99,,,-99.99,,2013-02-25 05:11:00,
2013-02-25 00:22:00,31.0,23.0,30.07,WNW,288,1.0,-999.0,73,-99.99,,,-99.99,,2013-02-25 05:22:00,
2013-02-25 00:32:00,31.0,23.0,30.07,NW,306,1.0,-999.0,73,-99.99,,,-99.99,,2013-02-25 05:32:00,
2013-02-25 00:42:00,31.0,23.0,30.07,NW,306,1.0,-999.0,73,-99.99,,,-99.99,,2013-02-25 05:42:00,
2013-02-25 00:52:00,31.0,23.0,30.07,WNW,297,1.0,-999.0,72,-99.99,,,-99.99,,2013-02-25 05:52:00,
2013-02-25 01:02:00,31.0,23.0,30.08,WNW,284,1.0,-999.0,72,-99.99,,,-99.99,,2013-02-25 06:02:00,
2013-02-25 01:12:00,31.0,23.0,30.08,WNW,284,1.0,-999.0,72,-99.99,,,-99.99,,2013-02-25 06:12:00,
2013-02-25 01:21:00,31.0,23.0,30.08,WNW,294,0.0,-999.0,72,-99.99,,,-99.99,,2013-02-25 06:21:00,
2013-02-25 01:32:00,31.0,23.0,30.08,WNW,297,0.0,-999.0,72,-99.99,,,-99.99,,2013-02-25 06:32:00,
2013-02-25 01:42:00,31.0,23.0,30.08,WNW,297,0.0,-999.0,72,-99.99,,,-99.99,,2013-02-25 06:42:00,
2013-02-25 08:02:00,27.0,23.0,30.14,West,281,0.0,-999.0,84,-99.99,,,-99.99,,2013-02-25 13:02:00,
2013-02-25 08:12:00,27.0,23.0,30.14,West,281,0.0,-999.0,84,-99.99,,,-99.99,,2013-02-25 13:12:00,
2013-02-25 08:23:00,28.0,24.0,30.14,WNW,290,0.0,-999.0,84,-99.99,,,-99.99,,2013-02-25 13:23:00,
2013-02-25 08:32:00,30.0,24.0,30.15,WNW,294,0.0,-999.0,78,-99.99,,,-99.99,,2013-02-25 13:32:00,
2013-02-25 08:42:00,30.0,24.0,30.15,WNW,294,0.0,-999.0,78,-99.99,,,-99.99,,2013-02-25 13:42:00,
2013-02-25 08:52:00,34.0,26.0,30.15,West,269,1.0,-999.0,72,-99.99,,,-99.99,,2013-02-25 13:52:00,
2013-02-25 09:03:00,38.0,27.0,30.16,WNW,292,1.0,-999.0,64,-99.99,,,-99.99,,2013-02-25 14:03:00,
2013-02-25 09:18:00,38.0,27.0,30.16,WNW,292,1.0,-999.0,64,-99.99,,,-99.99,,2013-02-25 14:18:00,
2013-02-25 09:32:00,42.0,28.0,30.17,WNW,292,1.0,-999.0,57,-99.99,,,-99.99,,2013-02-25 14:32:00,
2013-02-25 09:52:00,43.0,28.0,30.16,WNW,294,2.0,-999.0,55,-99.99,,,-99.99,,2013-02-25 14:52:00,
2013-02-25 10:03:00,44.0,28.0,30.17,WNW,300,2.0,-999.0,53,-99.99,,,-99.99,,2013-02-25 15:03:00,
2013-02-25 10:22:00,44.0,28.0,30.17,North,360,3.0,-999.0,52,-99.99,,,-99.99,,2013-02-25 15:22:00,
2013-02-25 10:32:00,45.0,28.0,30.16,WNW,288,2.0,-999.0,51,-99.99,,,-99.99,,2013-02-25 15:32:00,
2013-02-25 10:51:00,45.0,28.0,30.17,NW,322,3.0,-999.0,51,-99.99,,,-99.99,,2013-02-25 15:51:00,
2013-02-25 11:02:00,46.0,28.0,30.16,North,355,2.0,-999.0,50,-99.99,,,-99.99,,2013-02-25 16:02:00,
2013-02-25 11:22:00,47.0,30.0,30.16,NE,53,2.0,-999.0,52,-99.99,,,-99.99,,2013-02-25 16:22:00,
2013-02-25 11:32:00,48.0,30.0,30.17,NW,304,2.0,-999.0,49,-99.99,,,-99.99,,2013-02-25 16:32:00,
2013-02-25 11:51:00,49.0,30.0,30.16,NW,312,2.0,-999.0,48,-99.99,,,-99.99,,2013-02-25 16:51:00,
2013-02-25 12:02:00,49.0,30.0,30.16,North,355,2.0,-999.0,48,-99.99,,,-99.99,,2013-02-25 17:02:00,
2013-02-25 12:21:00,49.0,31.0,30.16,WNW,287,2.0,-999.0,49,-99.99,,,-99.99,,2013-02-25 17:21:00,
2013-02-25 12:32:00,50.0,31.0,30.16,North,355,2.0,-999.0,47,-99.99,,,-99.99,,2013-02-25 17:32:00,
2013-02-25 12:52:00,50.0,32.0,30.16,NW,309,2.0,-999.0,49,-99.99,,,-99.99,,2013-02-25 17:52:00,
2013-02-25 13:02:00,51.0,31.0,30.15,NNE,25,1.0,-999.0,46,-99.99,,,-99.99,,2013-02-25 18:02:00,
2013-02-25 13:21:00,50.0,30.0,30.15,ENE,78,1.0,-999.0,46,-99.99,,,-99.99,,2013-02-25 18:21:00,
2013-02-25 13:33:00,51.0,31.0,30.15,North,360,1.0,-999.0,46,-99.99,,,-99.99,,2013-02-25 18:33:00,
2013-02-25 13:42:00,51.0,31.0,30.15,North,360,1.0,-999.0,46,-99.99,,,-99.99,,2013-02-25 18:42:00,
2013-02-25 13:51:00,50.0,30.0,30.15,North,350,2.0,-999.0,46,-99.99,,,-99.99,,2013-02-25 18:51:00,
2013-02-25 14:01:00,51.0,31.0,30.14,NNE,24,1.0,-999.0,46,-99.99,,,-99.99,,2013-02-25 19:01:00,
2013-02-25 14:11:00,51.0,31.0,30.14,NNE,24,1.0,-999.0,46,-99.99,,,-99.99,,2013-02-25 19:11:00,
2013-02-25 14:21:00,50.0,31.0,30.14,West,264,1.0,-999.0,47,-99.99,,,-99.99,,2013-02-25 19:21:00,
2013-02-25 14:32:00,51.0,30.0,30.14,NNW,348,1.0,-999.0,45,-99.99,,,-99.99,,2013-02-25 19:32:00,
2013-02-25 14:42:00,51.0,30.0,30.14,NNW,348,1.0,-999.0,45,-99.99,,,-99.99,,2013-02-25 19:42:00,
2013-02-25 14:52:00,49.0,29.0,30.13,North,11,2.0,-999.0,46,-99.99,,,-99.99,,2013-02-25 19:52:00,
2013-02-25 15:01:00,48.0,28.0,30.12,SSE,148,0.0,-999.0,46,-99.99,,,-99.99,,2013-02-25 20:01:00,
2013-02-25 15:11:00,48.0,28.0,30.12,SSE,148,0.0,-999.0,46,-99.99,,,-99.99,,2013-02-25 20:11:00,
2013-02-25 15:21:00,48.0,29.0,30.12,NW,325,1.0,-999.0,47,-99.99,,,-99.99,,2013-02-25 20:21:00,
2013-02-25 15:32:00,48.0,29.0,30.12,ESE,117,1.0,-999.0,48,-99.99,,,-99.99,,2013-02-25 20:32:00,
2013-02-25 15:42:00,48.0,29.0,30.12,ESE,117,1.0,-999.0,48,-99.99,,,-99.99,,2013-02-25 20:42:00,
2013-02-25 15:52:00,47.0,28.0,30.12,SSE,150,0.0,-999.0,47,-99.99,,,-99.99,,2013-02-25 20:52:00,
2013-02-25 16:02:00,47.0,29.0,30.11,SSE,164,0.0,-999.0,49,-99.99,,,-99.99,,2013-02-25 21:02:00,
2013-02-25 16:11:00,47.0,29.0,30.11,SSE,164,0.0,-999.0,49,-99.99,,,-99.99,,2013-02-25 21:11:00,
2013-02-25 16:21:00,47.0,29.0,30.12,SSE,163,0.0,-999.0,49,-99.99,,,-99.99,,2013-02-25 21:21:00,
2013-02-25 16:32:00,47.0,28.0,30.12,West,260,1.0,-999.0,48,-99.99,,,-99.99,,2013-02-25 21:32:00,
2013-02-25 16:42:00,47.0,28.0,30.12,West,260,1.0,-999.0,48,-99.99,,,-99.99,,2013-02-25 21:42:00,
2013-02-25 16:51:00,47.0,28.0,30.12,NW,323,1.0,-999.0,48,-99.99,,,-99.99,,2013-02-25 21:51:00,
2013-02-25 17:02:00,47.0,29.0,30.13,ENE,69,0.0,-999.0,50,-99.99,,,-99.99,,2013-02-25 22:02:00,
2013-02-25 17:11:00,47.0,29.0,30.13,ENE,69,0.0,-999.0,50,-99.99,,,-99.99,,2013-02-25 22:11:00,
2013-02-25 17:21:00,46.0,29.0,30.13,SSE,159,0.0,-999.0,51,-99.99,,,-99.99,,2013-02-25 22:21:00,
2013-02-25 17:32:00,46.0,30.0,30.14,ESE,114,1.0,-999.0,53,-99.99,,,-99.99,,2013-02-25 22:32:00,
2013-02-25 17:42:00,46.0,30.0,30.14,ESE,114,1.0,-999.0,53,-99.99,,,-99.99,,2013-02-25 22:42:00,
2013-02-25 17:51:00,45.0,30.0,30.14,SSE,149,1.0,-999.0,55,-99.99,,,-99.99,,2013-02-25 22:51:00,
2013-02-25 18:01:00,44.0,29.0,30.14,ESE,107,0.0,-999.0,56,-99.99,,,-99.99,,2013-02-25 23:01:00,
2013-02-25 18:11:00,44.0,29.0,30.14,ESE,107,0.0,-999.0,56,-99.99,,,-99.99,,2013-02-25 23:11:00,
2013-02-25 18:22:00,43.0,29.0,30.14,ESE,107,0.0,-999.0,58,-99.99,,,-99.99,,2013-02-25 23:22:00,
2013-02-25 18:32:00,42.0,29.0,30.16,ESE,107,0.0,-999.0,59,-99.99,,,-99.99,,2013-02-25 23:32:00,
2013-02-25 18:42:00,42.0,29.0,30.16,ESE,107,0.0,-999.0,59,-99.99,,,-99.99,,2013-02-25 23:42:00,
2013-02-25 18:52:00,41.0,29.0,30.15,ESE,107,0.0,-999.0,61,-99.99,,,-99.99,,2013-02-25 23:52:00,
2013-02-25 19:02:00,39.0,27.0,30.16,ESE,106,0.0,-999.0,62,-99.99,,,-99.99,,2013-02-26 00:02:00,
2013-02-25 19:12:00,39.0,27.0,30.16,ESE,106,0.0,-999.0,62,-99.99,,,-99.99,,2013-02-26 00:12:00,
2013-02-25 19:22:00,38.0,27.0,30.16,ESE,107,0.0,-999.0,65,-99.99,,,-99.99,,2013-02-26 00:22:00,
2013-02-25 19:32:00,37.0,27.0,30.18,ESE,107,0.0,-999.0,68,-99.99,,,-99.99,,2013-02-26 00:32:00,
2013-02-25 19:42:00,37.0,27.0,30.18,ESE,107,0.0,-999.0,68,-99.99,,,-99.99,,2013-02-26 00:42:00,
2013-02-25 19:51:00,36.0,27.0,30.17,ESE,107,0.0,-999.0,70,-99.99,,,-99.99,,2013-02-26 00:51:00,
2013-02-25 20:02:00,35.0,27.0,30.18,ESE,107,0.0,-999.0,71,-99.99,,,-99.99,,2013-02-26 01:02:00,
2013-02-25 20:11:00,35.0,27.0,30.18,ESE,107,0.0,-999.0,71,-99.99,,,-99.99,,2013-02-26 01:11:00,
2013-02-25 20:21:00,35.0,28.0,30.18,ESE,106,0.0,-999.0,74,-99.99,,,-99.99,,2013-02-26 01:21:00,
2013-02-25 20:32:00,34.0,27.0,30.19,ESE,107,0.0,-999.0,76,-99.99,,,-99.99,,2013-02-26 01:32:00,
2013-02-25 20:42:00,34.0,27.0,30.19,ESE,107,0.0,-999.0,76,-99.99,,,-99.99,,2013-02-26 01:42:00,
2013-02-25 20:52:00,33.0,27.0,30.19,ESE,107,0.0,-999.0,77,-99.99,,,-99.99,,2013-02-26 01:52:00,
2013-02-25 21:01:00,33.0,27.0,30.19,ESE,107,0.0,-999.0,77,-99.99,,,-99.99,,2013-02-26 02:01:00,
2013-02-25 21:11:00,33.0,27.0,30.19,ESE,107,0.0,-999.0,77,-99.99,,,-99.99,,2013-02-26 02:11:00,
2013-02-25 21:21:00,32.0,26.0,30.19,ESE,107,0.0,-999.0,79,-99.99,,,-99.99,,2013-02-26 02:21:00,
2013-02-25 21:32:00,31.0,26.0,30.19,ESE,106,0.0,-999.0,81,-99.99,,,-99.99,,2013-02-26 02:32:00,
2013-02-25 21:42:00,31.0,26.0,30.19,ESE,106,0.0,-999.0,81,-99.99,,,-99.99,,2013-02-26 02:42:00,
2013-02-25 21:52:00,31.0,26.0,30.19,ESE,106,0.0,-999.0,81,-99.99,,,-99.99,,2013-02-26 02:52:00,
2013-02-25 22:02:00,30.0,25.0,30.18,ESE,107,0.0,-999.0,82,-99.99,,,-99.99,,2013-02-26 03:02:00,
2013-02-25 22:12:00,30.0,25.0,30.18,ESE,107,0.0,-999.0,82,-99.99,,,-99.99,,2013-02-26 03:12:00,
2013-02-25 22:22:00,30.0,25.0,30.18,ESE,107,0.0,-999.0,83,-99.99,,,-99.99,,2013-02-26 03:22:00,
2013-02-25 22:32:00,29.0,25.0,30.18,ESE,107,0.0,-999.0,84,-99.99,,,-99.99,,2013-02-26 03:32:00,
2013-02-25 22:42:00,29.0,25.0,30.18,ESE,107,0.0,-999.0,84,-99.99,,,-99.99,,2013-02-26 03:42:00,
2013-02-25 22:52:00,29.0,25.0,30.18,ESE,107,0.0,-999.0,85,-99.99,,,-99.99,,2013-02-26 03:52:00,
2013-02-25 23:02:00,29.0,25.0,30.18,ESE,106,0.0,-999.0,86,-99.99,,,-99.99,,2013-02-26 04:02:00,
2013-02-25 23:11:00,29.0,25.0,30.18,ESE,106,0.0,-999.0,86,-99.99,,,-99.99,,2013-02-26 04:11:00,
2013-02-25 23:22:00,29.0,26.0,30.19,ESE,107,0.0,-999.0,87,-99.99,,,-99.99,,2013-02-26 04:22:00,
2013-02-25 23:32:00,28.0,25.0,30.16,ESE,106,0.0,-999.0,87,-99.99,,,-99.99,,2013-02-26 04:32:00,
2013-02-25 23:42:00,28.0,25.0,30.16,ESE,106,0.0,-999.0,87,-99.99,,,-99.99,,2013-02-26 04:42:00,
2013-02-25 23:52:00,28.0,25.0,30.16,ESE,107,0.0,-999.0,87,-99.99,,,-99.99,,2013-02-26 04:52:00,